GW5348 Weather Reports


time (UTC)temp
F
wind
direction
speed
knots
gust
knots
rain 1hr
in
rain 24hr
in
rain mn
in
humidity
%
barometer
mb
20260506140952 76 304 0.0 1.7 0.00 0.00 0.00 33 1015.0
20260506140451 76 306 0.9 1.7 0.00 0.00 0.00 33 1015.0
20260506135951 76 346 0.9 1.7 0.00 0.00 0.00 34 1015.0
20260506135451 77 318 1.7 1.7 0.00 0.00 0.00 34 1015.0
20260506134951 77 349 1.7 1.7 0.00 0.00 0.00 33 1015.0
20260506134451 77 292 0.9 1.7 0.00 0.00 0.00 34 1015.0
20260506133953 77 317 0.9 2.6 0.00 0.00 0.00 33 1015.0
20260506133452 77 317 0.0 1.7 0.00 0.00 0.00 33 1015.0
20260506132951 77 320 0.0 1.7 0.00 0.00 0.00 33 1015.0
20260506132451 78 311 0.9 1.7 0.00 0.00 0.00 32 1015.0
20260506131951 78 302 0.0 1.7 0.00 0.00 0.00 32 1015.0
20260506131452 78 301 1.7 1.7 0.00 0.00 0.00 32 1016.0
20260506130516 78 25 0.0 1.7 0.00 0.00 0.00 32 1016.0
20260506125951 78 324 0.9 1.7 0.00 0.00 0.00 31 1016.0
20260506125451 78 293 0.0 1.7 0.00 0.00 0.00 31 1016.0
20260506124951 78 318 1.7 2.6 0.00 0.00 0.00 32 1016.0
20260506124451 78 328 0.0 1.7 0.00 0.00 0.00 33 1016.0
20260506123951 77 308 0.9 1.7 0.00 0.00 0.00 33 1016.0
20260506123451 77 352 0.0 1.7 0.00 0.00 0.00 33 1016.0
20260506122952 78 317 0.9 1.7 0.00 0.00 0.00 32 1016.0
20260506122451 77 314 0.0 1.7 0.00 0.00 0.00 33 1016.0
20260506121951 77 243 0.0 1.7 0.00 0.00 0.00 33 1016.0
20260506121451 77 269 0.0 1.7 0.00 0.00 0.00 33 1016.0
20260506120951 77 296 0.0 1.7 0.00 0.00 0.00 34 1016.0
20260506120451 76 347 1.7 2.6 0.00 0.00 0.00 34 1016.0
20260506115951 76 326 0.9 1.7 0.00 0.00 0.00 33 1016.0
20260506115451 76 296 1.7 2.6 0.00 0.00 0.00 33 1016.0
20260506114951 77 320 0.9 2.6 0.00 0.00 0.00 32 1016.0
20260506114451 77 314 0.9 1.7 0.00 0.00 0.00 32 1016.0
20260506113952 77 353 0.9 2.6 0.00 0.00 0.00 34 1016.0
20260506113451 77 330 0.9 2.6 0.00 0.00 0.00 32 1016.0
20260506112951 77 293 0.0 1.7 0.00 0.00 0.00 33 1016.0
20260506112451 77 295 1.7 1.7 0.00 0.00 0.00 33 1017.0
20260506111951 77 305 1.7 1.7 0.00 0.00 0.00 33 1017.0
20260506111453 76 299 0.9 1.7 0.00 0.00 0.00 33 1017.0
20260506110951 76 3 0.0 1.7 0.00 0.00 0.00 35 1017.0
20260506110452 76 293 0.9 2.6 0.00 0.00 0.00 35 1017.0
20260506105951 75 29 0.0 1.7 0.00 0.00 0.00 36 1017.0
20260506105453 75 15 1.7 1.7 0.00 0.00 0.00 38 1017.0
20260506104951 75 295 0.9 1.7 0.00 0.00 0.00 37 1017.0
20260506104451 74 280 2.6 2.6 0.00 0.00 0.00 37 1017.0
20260506103951 74 308 0.9 2.6 0.00 0.00 0.00 37 1017.0
20260506103451 73 344 0.9 1.7 0.00 0.00 0.00 38 1017.0
20260506102951 73 311 1.7 2.6 0.00 0.00 0.00 37 1017.0
20260506102451 73 2 1.7 2.6 0.00 0.00 0.00 36 1017.0
20260506101952 74 350 0.9 2.6 0.00 0.00 0.00 36 1017.0
20260506101451 74 333 0.9 1.7 0.00 0.00 0.00 36 1017.0
20260506100951 73 304 0.9 1.7 0.00 0.00 0.00 37 1017.0
20260506100451 73 12 0.0 1.7 0.00 0.00 0.00 38 1017.0
20260506095951 74 309 1.7 3.5 0.00 0.00 0.00 36 1017.0
20260506095451 74 312 0.0 1.7 0.00 0.00 0.00 37 1017.0
20260506094951 73 330 0.9 1.7 0.00 0.00 0.00 37 1017.0
20260506094451 73 300 0.9 2.6 0.00 0.00 0.00 37 1017.0
20260506093951 74 343 1.7 2.6 0.00 0.00 0.00 35 1017.0
20260506093451 74 344 0.0 2.6 0.00 0.00 0.00 37 1017.0
20260506092951 74 353 0.9 1.7 0.00 0.00 0.00 38 1017.0
20260506092451 74 32 0.9 1.7 0.00 0.00 0.00 37 1016.0
20260506091951 74 348 0.9 1.7 0.00 0.00 0.00 37 1016.0
20260506091453 73 352 0.0 1.7 0.00 0.00 0.00 38 1016.0
20260506090952 74 288 0.0 1.7 0.00 0.00 0.00 38 1016.0
20260506090452 73 27 0.0 2.6 0.00 0.00 0.00 39 1016.0
20260506085951 74 10 0.9 2.6 0.00 0.00 0.00 38 1016.0
20260506085452 74 288 0.9 2.6 0.00 0.00 0.00 38 1016.0
20260506084951 75 314 0.9 2.6 0.00 0.00 0.00 37 1016.0
20260506084454 75 288 0.0 2.6 0.00 0.00 0.00 37 1016.0
20260506083951 75 318 0.0 2.6 0.00 0.00 0.00 37 1016.0
20260506083452 75 0 0.9 1.7 0.00 0.00 0.00 37 1016.0
20260506082952 75 358 0.9 1.7 0.00 0.00 0.00 38 1016.0
20260506082451 75 302 0.0 2.6 0.00 0.00 0.00 38 1016.0
20260506081951 75 308 0.0 2.6 0.00 0.00 0.00 38 1016.0
20260506081451 75 355 0.0 3.5 0.00 0.00 0.00 38 1016.0
20260506080951 75 318 0.9 2.6 0.00 0.00 0.00 39 1016.0
20260506080451 74 343 0.9 2.6 0.00 0.00 0.00 39 1016.0
20260506073451 73 255 0.0 1.7 0.00 0.00 0.00 39 1017.0
20260506072951 73 330 1.7 1.7 0.00 0.00 0.00 40 1016.0
20260506072451 73 255 0.9 2.6 0.00 0.00 0.00 40 1016.0
20260506071952 71 283 0.0 1.7 0.00 0.00 0.00 41 1016.0
20260506071451 70 348 0.9 1.7 0.00 0.00 0.00 43 1016.0
20260506070952 70 333 0.0 2.6 0.00 0.00 0.00 44 1016.0
20260506070451 69 13 0.0 1.7 0.00 0.00 0.00 45 1016.0
20260506062452 67 3 0.0 0.9 0.00 0.00 0.00 49 1016.0